New Bern, NC

8:11 AM EST on November 21, 2017 (GMT -0500)
Craven County Regional

Weather History for KEWN - January, 2013

Change the Weather History Date:

Friday, January 25, 2013

  Actual Average Record
Temperature  
Mean Temperature 29 °F 45 °F  
Max Temperature 35 °F 55 °F 80 °F (1950)
Min Temperature 22 °F 34 °F 11 °F (2003)
Degree Days  
Heating Degree Days 36 20  
Month to date heating degree days 406 524  
Since 1 July heating degree days 1348 1518  
Cooling Degree Days 0 0  
Month to date cooling degree days 4 0  
Year to date cooling degree days 4 0  
Moisture  
Dew Point 21 °F    
Average Humidity 68    
Maximum Humidity 92    
Minimum Humidity 43    
Precipitation  
Precipitation 0.23 in 0.13 in 1.44 in (1986)
Month to date precipitation 1.47 3.25  
Year to date precipitation 1.47 3.25  
Snow  
Snow 0.00 in - - ()
Month to date snowfall 0.0  
Since 1 July snowfall 0.0  
Snow Depth 0.00 in    
Sea Level Pressure  
Sea Level Pressure 30.30 in    
Wind  
Wind Speed 6 mph (NNE)    
Max Wind Speed 12 mph    
Max Gust Speed 15 mph    
Visibility 7 miles    
Events Rain    
T = Trace of Precipitation, MM = Missing Value Source: NWS Daily Summary

Daily Weather History Graph

Daily Weather History Graph

Search for Another Location

Airport or City:

Trip Planner

Search our weather history database for the weather conditions in past years. The results will help you decide how hot, cold, wet, or windy it might be!

Date:

Astronomy

Jan. 25, 2013 Rise Set
Actual Time 7:11 AM EST 5:29 PM EST
Civil Twilight 6:44 AM EST 5:56 PM EST
Nautical Twilight 6:13 AM EST 6:27 PM EST
Astronomical Twilight 5:43 AM EST 6:57 PM EST
Moon 4:25 PM EST (1/25) 5:49 AM EST (1/25)
Length of Visible Light 11h 12m
Length of Day
10h 18m
Waxing Gibbous, 98% of the Moon is Illuminated
Jan 25
Waxing Gibbous
Jan 26
Full
Feb 3
Last Quarter
Feb 10
New
Feb 17
First Quarter

Hourly Weather History & Observations

Time (EST) Temp. Windchill Dew Point Humidity Pressure Visibility Wind Dir Wind Speed Gust Speed Precip Events Conditions
12:54 AM 25.0 °F 16.3 °F 9.0 °F 51% 30.53 in 10.0 mi NE 8.1 mph - N/A   Clear
1:54 AM 24.1 °F 19.7 °F 9.0 °F 53% 30.53 in 10.0 mi NE 3.5 mph - N/A   Clear
2:54 AM 23.0 °F 15.8 °F 10.0 °F 58% 30.54 in 10.0 mi NNE 5.8 mph - N/A   Clear
3:54 AM 24.1 °F 18.2 °F 10.0 °F 55% 30.53 in 10.0 mi NNW 4.6 mph - N/A   Clear
4:54 AM 24.1 °F 17.0 °F 10.0 °F 55% 30.51 in 10.0 mi NNE 5.8 mph - N/A   Clear
5:54 AM 25.0 °F 19.3 °F 10.0 °F 53% 30.51 in 10.0 mi NNE 4.6 mph - N/A   Clear
7:54 AM 26.1 °F 17.6 °F 9.0 °F 49% 30.51 in 10.0 mi NNE 8.1 mph - N/A   Clear
8:54 AM 28.0 °F 21.7 °F 10.9 °F 49% 30.49 in 10.0 mi NNE 5.8 mph - N/A   Clear
9:54 AM 30.9 °F 27.5 °F 10.9 °F 43% 30.48 in 10.0 mi ENE 3.5 mph - N/A   Clear
10:54 AM 33.1 °F - 14.0 °F 46% 30.46 in - North - - N/A   Unknown
11:31 AM 33.8 °F - 15.8 °F 48% 30.43 in 2.0 mi North - - N/A   Haze
11:38 AM 33.8 °F 29.6 °F 15.8 °F 48% 30.43 in - NNE 4.6 mph - N/A   Unknown
11:54 AM 34.0 °F - 16.0 °F 48% 30.41 in - North - - N/A   Unknown
12:51 PM 33.8 °F 30.8 °F 17.6 °F 52% 30.35 in 2.5 mi ESE 3.5 mph - N/A   Haze
12:54 PM 34.0 °F - 17.1 °F 50% 30.34 in 10.0 mi Calm Calm - N/A   Unknown
1:54 PM 34.0 °F 28.8 °F 19.9 °F 56% 30.26 in 10.0 mi ESE 5.8 mph - 0.00 in   Overcast
2:54 PM 34.0 °F 31.0 °F 21.0 °F 59% 30.24 in 10.0 mi ENE 3.5 mph - 0.00 in   Overcast
3:54 PM 34.0 °F 27.2 °F 23.0 °F 64% 30.25 in 10.0 mi North 8.1 mph - 0.00 in Rain Light Rain
4:01 PM 33.8 °F 27.7 °F 23.0 °F 65% 30.23 in 10.0 mi NNE 6.9 mph - 0.00 in   Overcast
4:37 PM 32.0 °F 28.7 °F 26.6 °F 80% 30.21 in 4.0 mi NE 3.5 mph - 0.01 in Rain Light Freezing Rain
4:54 PM 30.9 °F 25.2 °F 27.0 °F 85% 30.21 in 4.0 mi NE 5.8 mph - 0.02 in Rain Light Freezing Rain
5:05 PM 30.2 °F 25.4 °F 26.6 °F 86% 30.20 in 4.0 mi NE 4.6 mph - 0.02 in Rain Light Freezing Rain
5:21 PM 30.2 °F - 28.4 °F 93% 30.18 in 5.0 mi Calm Calm - 0.05 in Rain Light Freezing Rain
5:41 PM 32.0 °F - 28.4 °F 87% 30.16 in 4.0 mi Calm Calm - 0.07 in Rain Light Freezing Rain
5:54 PM 30.9 °F 25.2 °F 28.0 °F 89% 30.15 in 5.0 mi SE 5.8 mph - 0.09 in Rain Light Freezing Rain
5:59 PM 32.0 °F 28.7 °F 28.4 °F 87% 30.15 in 5.0 mi SSE 3.5 mph - 0.00 in   Overcast
6:07 PM 32.0 °F 28.7 °F 28.4 °F 87% 30.15 in 5.0 mi South 3.5 mph - 0.01 in   Overcast
6:35 PM 32.0 °F 28.7 °F 28.4 °F 87% 30.15 in 5.0 mi Variable 3.5 mph - 0.05 in   Overcast
6:54 PM 32.0 °F 24.2 °F 30.0 °F 92% 30.16 in 4.0 mi NNW 9.2 mph - 0.07 in   Overcast
7:54 PM 33.1 °F 28.7 °F 30.9 °F 92% 30.14 in 6.0 mi NNW 4.6 mph - 0.04 in Rain Light Rain
8:23 PM 33.8 °F 27.0 °F 30.2 °F 87% 30.15 in 7.0 mi NW 8.1 mph - 0.01 in Rain Light Rain
8:54 PM 33.1 °F 24.9 °F 30.0 °F 89% 30.15 in 10.0 mi NNW 10.4 mph - 0.01 in   Overcast
9:54 PM 32.0 °F 27.5 °F 28.9 °F 88% 30.15 in 8.0 mi WNW 4.6 mph - N/A   Overcast
10:54 PM 32.0 °F 26.4 °F 28.9 °F 88% 30.14 in 7.0 mi West 5.8 mph - N/A   Overcast
11:12 PM 32.0 °F 26.4 °F 28.4 °F 87% 30.14 in 6.0 mi WNW 5.8 mph - N/A   Overcast
11:54 PM 32.0 °F 26.4 °F 28.9 °F 88% 30.16 in 6.0 mi WNW 5.8 mph - N/A   Partly Cloudy